[[{"header":{"parameterUnit":"m.s-1","parameterCategory":1,"la1":30.2991,"la2":30.254,"lo1":-89.0895,"lo2":-89.0444,"dy":0.0017,"dx":0.0017,"nx":28,"ny":28,"refTime":"2023-06-25T21:00:00:Z","depth":0,"parameterNumber":2,"parameterNumberName":"U-component_of_WINDS"},"data":[0,0,0,0,0,0,0,0,0,0,0,0,0,0,0,0,0,0,0,0,0,0,0,0,0,0,0,0,0,0,0,0,0,0,0,0,0,0,0,0,0,0,0,0,0,0,0,0,0,0,0,0,0,0,0,0,0,0,4.3335,4.3334,0,4.3256,4.3255,4.3254,4.3042,4.3037,4.3032,4.3028,4.2954,4.2956,4.2959,0,0,0,0,0,0,0,0,0,0,0,0,0,4.3307,4.3309,4.3335,4.3334,4.3333,4.3256,4.3255,4.3254,4.3042,4.3037,4.3031,4.3026,4.2953,4.2956,4.2959,0,0,0,0,0,0,0,0,0,0,0,0,0,4.3283,4.3309,4.3335,4.3218,4.3206,4.3256,4.3255,4.3254,4.3044,4.3037,4.303,4.3023,4.2952,4.2956,4.2959,4.3118,0,0,4.297,4.2971,0,0,0,0,0,0,0,0,4.3285,4.3285,4.3236,4.3226,4.3213,4.3151,4.3218,4.3209,4.3045,4.3106,4.3028,4.302,4.3026,4.3023,4.3023,4.3115,4.3112,4.297,4.2972,4.2974,4.2975,0,0,0,0,0,0,0,4.3287,4.3287,4.3304,4.3235,4.3222,4.3171,4.316,4.3215,4.3106,4.31,4.3084,4.3077,4.3018,4.3021,4.302,4.3111,4.297,4.2973,4.2975,4.2977,4.3328,4.3335,0,0,0,0,0,0,4.3304,4.329,4.3306,4.3301,4.3233,4.3177,4.3165,4.3178,4.3104,4.3086,4.3083,4.3068,4.3018,4.3016,4.3017,4.3197,4.2974,4.2977,4.2979,4.3321,4.333,4.3338,0,0,0,0,0,0,4.3305,4.3308,4.3309,4.3291,4.3287,4.3185,4.3202,4.318,4.3182,4.3092,4.3072,4.3105,4.3012,4.3012,4.3094,4.3191,4.2978,4.2982,4.3312,4.3324,4.3334,4.356,0,0,0,0,0,0,4.3305,4.3309,4.3367,4.3294,4.3289,4.3387,4.3208,4.3184,4.3188,4.3167,4.3107,4.3091,4.3007,4.309,4.3098,4.3192,4.2984,4.3303,4.3317,4.333,4.3543,4.3577,4.3606,0,0,0,0,0,4.3305,4.3436,4.3371,4.3375,4.3359,4.3393,4.339,4.3289,4.3197,4.3255,4.3197,4.3092,4.318,4.31,4.3107,4.3204,4.3296,4.3313,4.3329,4.3529,4.357,4.3605,0,0,0,0,0,0,4.3526,4.3424,4.3351,4.3462,4.3438,4.3357,4.3427,4.3337,4.3339,4.332,4.3197,4.3185,4.3285,4.3253,4.3166,4.3354,4.3221,4.324,4.3371,4.3409,4.344,4.3445,4.2987,0,0,0,0,0,4.3587,4.3621,4.3531,4.3638,4.3629,4.3531,4.3542,4.3466,4.3436,4.3425,4.3373,4.335,4.3372,4.3389,4.3404,4.3538,4.3522,4.3608,4.364,4.3666,4.3683,4.3751,4.3788,4.3391,4.3391,4.3391,0,0,4.3715,4.3663,4.3692,4.3681,4.3652,4.3692,4.3523,4.3572,4.36,4.3433,4.3506,4.3468,4.3435,4.3543,4.3588,4.3519,4.379,4.3687,4.3709,4.3711,4.3772,4.381,4.3843,4.3402,4.34,4.3399,0,0,4.3966,4.3931,4.4015,4.399,4.3949,4.3883,4.3904,4.3837,4.3804,4.3875,4.375,4.3784,4.3824,4.3805,4.3801,4.4046,4.395,4.4055,4.4219,4.4287,4.4318,4.4345,4.4432,4.4464,4.4073,4.4073,4.4074,0,4.4131,4.4182,4.4071,4.4127,4.4126,4.3974,4.4059,4.4041,4.4009,4.4013,4.3936,4.3982,4.3949,4.4051,4.4111,4.4113,4.4133,4.406,4.4322,4.4348,4.4372,4.4453,4.4486,4.4086,4.4085,4.4083,4.4082,0,4.4386,4.4424,4.4498,4.4467,4.4474,4.4545,4.4446,4.4467,4.4392,4.4335,4.441,4.4365,4.4368,4.4387,4.4315,4.4479,4.4437,4.4344,4.4207,4.4424,4.4499,4.4529,4.4104,4.41,4.4096,4.4093,0,0,4.4774,4.468,4.4708,4.4692,4.4636,4.4664,4.473,4.473,4.4751,4.4734,4.4786,4.4824,4.4736,4.4732,4.4656,4.4716,4.4913,4.4614,4.4611,4.467,4.509,4.516,4.5198,4.4849,4.4855,4.4859,4.5092,0,4.501,4.5112,4.5014,4.5136,4.517,4.5028,4.5084,4.5057,4.5006,4.503,4.4974,4.5002,4.4885,4.4881,4.4934,4.4878,4.4995,4.486,4.4897,4.49,4.4908,4.5237,4.531,4.5533,4.5121,4.5126,4.5129,0,4.5299,4.5292,4.5418,4.5353,4.5364,4.5416,4.5408,4.5432,4.5399,4.5358,4.5354,4.5261,4.5322,4.519,4.5273,4.5183,4.5193,4.5168,4.5174,4.5172,4.5027,4.5243,4.5601,4.5634,4.5174,4.5171,4.5168,0,4.5567,4.5591,4.5668,4.5659,4.5586,4.5626,4.5598,4.5558,4.5565,4.556,4.5563,4.5567,4.5568,4.5574,4.5486,4.5398,4.558,4.5441,4.5548,4.5551,4.5591,4.559,4.5955,4.5601,4.5601,4.56,4.5599,0,4.584,4.5923,4.5787,4.5835,4.5924,4.5811,4.5903,4.586,4.5826,4.5864,4.5743,4.5782,4.5663,4.5691,4.5623,4.5701,4.5704,4.5673,4.5654,4.5683,4.5687,4.5686,4.5668,4.5609,4.5607,4.5605,4.5603,0,4.6154,4.6067,4.6142,4.6066,4.6049,4.6118,4.6053,4.6095,4.6037,4.6087,4.6092,4.6001,4.6027,4.5939,4.5952,4.5906,4.6021,4.5978,4.6032,4.6018,4.6129,4.612,4.6506,4.6551,4.6171,4.6174,4.6177,0,4.6333,4.6393,4.6323,4.6338,4.6316,4.6343,4.6349,4.6242,4.6253,4.622,4.6267,4.6282,4.6288,4.6337,4.6273,4.6282,4.6237,4.6372,4.6237,4.6265,4.6237,4.6234,4.6239,4.6399,4.6404,4.6408,4.6411,0,4.666,4.6614,4.6625,4.6622,4.6632,4.6625,4.661,4.6631,4.6516,4.6535,4.6559,4.6564,4.6575,4.6593,4.6588,4.6561,4.6468,4.6454,4.6479,4.6508,4.6537,4.6522,4.6106,4.6445,4.6442,4.6439,4.6437,4.6436,4.691,4.6956,4.6914,4.6931,4.6908,4.6897,4.6932,4.6877,4.6894,4.6893,4.683,4.6867,4.6833,4.6817,4.68,4.6828,4.6765,4.6802,4.6811,4.6822,4.684,4.6534,4.6827,4.6826,4.6825,4.6824,4.6823,0,4.7229,4.7195,4.7212,4.7193,4.7207,4.7116,4.7096,4.7114,4.7147,4.7122,4.713,4.7158,4.7175,4.7112,4.712,4.7155,4.7113,4.7161,4.7156,4.7151,4.6896,4.6873,4.7195,4.7195,4.7195,4.7195,4.7195,4.7195,4.7397,4.7469,4.7418,4.7479,4.7444,4.7476,4.7472,4.7462,4.7442,4.7477,4.7489,4.7448,4.7408,4.7412,4.7424,4.7405,4.7414,4.7477,4.7444,4.7206,4.717,4.7135,4.7112,4.748,4.748,4.7696,4.7698,4.77]},{"header":{"parameterUnit":"m.s-1","parameterCategory":1,"la1":30.2991,"la2":30.254,"lo1":-89.0895,"lo2":-89.0444,"dy":0.0017,"dx":0.0017,"nx":28,"ny":28,"refTime":"2023-06-25T21:00:00:Z","depth":0,"parameterNumber":3,"parameterNumberName":"V-component_of_WINDS"},"data":[0,0,0,0,0,0,0,0,0,0,0,0,0,0,0,0,0,0,0,0,0,0,0,0,0,0,0,0,0,0,0,0,0,0,0,0,0,0,0,0,0,0,0,0,0,0,0,0,0,0,0,0,0,0,0,0,0,0,2.7869,2.7871,0,2.8039,2.8041,2.8043,2.8077,2.8076,2.8074,2.8073,2.8247,2.8253,2.8259,0,0,0,0,0,0,0,0,0,0,0,0,0,2.7572,2.7577,2.7869,2.7871,2.7873,2.8039,2.8041,2.8044,2.8077,2.8076,2.8074,2.8073,2.8245,2.8252,2.8259,0,0,0,0,0,0,0,0,0,0,0,0,0,2.7717,2.7579,2.7868,2.791,2.7915,2.8038,2.8041,2.8044,2.8078,2.8076,2.8074,2.8072,2.8243,2.8252,2.826,2.8354,0,0,2.8287,2.8291,0,0,0,0,0,0,0,0,2.7709,2.7728,2.7902,2.7907,2.7914,2.8035,2.8,2.8148,2.8078,2.8016,2.8073,2.8071,2.8178,2.8192,2.8228,2.8362,2.837,2.8288,2.8293,2.8297,2.8299,0,0,0,0,0,0,0,2.7699,2.7721,2.7936,2.7904,2.7911,2.792,2.7938,2.8028,2.8106,2.8021,2.8024,2.8044,2.8181,2.822,2.8233,2.8372,2.8288,2.8295,2.8301,2.8304,2.859,2.8592,0,0,0,0,0,0,2.7681,2.7712,2.7931,2.7941,2.7804,2.7927,2.7947,2.7998,2.8105,2.812,2.8045,2.8045,2.8206,2.8222,2.8239,2.8355,2.8297,2.8305,2.831,2.8588,2.8591,2.8593,0,0,0,0,0,0,2.7675,2.7701,2.7924,2.7828,2.7857,2.7934,2.799,2.8002,2.8041,2.8123,2.8137,2.8071,2.8205,2.8227,2.8325,2.8362,2.8309,2.8317,2.8585,2.8589,2.8592,2.8588,0,0,0,0,0,0,2.7666,2.7698,2.7735,2.7828,2.7862,2.8007,2.7993,2.8007,2.8056,2.8057,2.8151,2.8165,2.8205,2.8312,2.8334,2.8373,2.8324,2.8582,2.8587,2.8591,2.8586,2.8591,2.8596,0,0,0,0,0,2.7656,2.7727,2.7737,2.7763,2.7909,2.8009,2.8029,2.8074,2.8059,2.8097,2.8149,2.8162,2.8354,2.8321,2.8347,2.8389,2.858,2.8585,2.859,2.8583,2.859,2.8596,0,0,0,0,0,0,2.7636,2.774,2.7752,2.7856,2.7923,2.8015,2.8063,2.808,2.8153,2.8151,2.8203,2.8224,2.8319,2.8364,2.8326,2.8485,2.8466,2.8477,2.8452,2.8459,2.8465,2.8452,2.8331,0,0,0,0,0,2.7644,2.7717,2.7804,2.7887,2.7921,2.7986,2.8031,2.806,2.8132,2.8161,2.8221,2.829,2.8366,2.8415,2.849,2.8592,2.8613,2.8634,2.8639,2.8643,2.8651,2.8708,2.8718,2.861,2.861,2.861,0,0,2.7661,2.7727,2.777,2.7885,2.7941,2.8015,2.801,2.8088,2.8144,2.8173,2.8269,2.8315,2.8396,2.8497,2.8544,2.8537,2.8685,2.8649,2.8652,2.8658,2.8714,2.8724,2.8733,2.8614,2.8613,2.8613,0,0,2.773,2.7787,2.7862,2.7918,2.8003,2.8046,2.8064,2.8153,2.8184,2.8282,2.8305,2.8371,2.8501,2.8558,2.8603,2.8692,2.8706,2.8715,2.8743,2.8797,2.8806,2.8813,2.8844,2.8855,2.8723,2.8723,2.8723,0,2.774,2.7853,2.7899,2.7977,2.8026,2.8056,2.8132,2.8184,2.8288,2.8322,2.8312,2.8476,2.8532,2.8646,2.8667,2.8703,2.8725,2.8704,2.8801,2.8809,2.8817,2.8847,2.8859,2.8723,2.8723,2.8723,2.8723,0,2.7861,2.7938,2.7989,2.8089,2.8144,2.8221,2.8278,2.8329,2.8352,2.8396,2.8494,2.8563,2.8651,2.868,2.8705,2.8797,2.879,2.879,2.8773,2.8827,2.8856,2.8868,2.8724,2.8724,2.8724,2.8724,0,0,2.7923,2.8047,2.8064,2.811,2.8204,2.8265,2.8342,2.8429,2.8471,2.8541,2.8607,2.8716,2.8716,2.8768,2.8798,2.8846,2.8911,2.884,2.8843,2.8851,2.9017,2.9016,2.9028,2.8921,2.8923,2.8925,2.901,0,2.8002,2.8142,2.8185,2.8301,2.8373,2.8402,2.8469,2.8534,2.8577,2.8643,2.869,2.8766,2.8761,2.8793,2.8841,2.8893,2.8945,2.8887,2.8982,2.8985,2.8961,2.9044,2.9044,2.912,2.9021,2.9023,2.9025,0,2.8114,2.8186,2.8309,2.8394,2.8426,2.8486,2.8568,2.8632,2.8706,2.8733,2.879,2.8817,2.8898,2.8876,2.8988,2.8948,2.8989,2.902,2.9024,2.9034,2.9008,2.9056,2.9146,2.9157,2.9043,2.9042,2.9041,0,2.8146,2.8274,2.8364,2.8402,2.8503,2.8545,2.8589,2.8661,2.871,2.8781,2.8814,2.8894,2.8938,2.8999,2.9046,2.9026,2.9154,2.9136,2.9179,2.9177,2.9204,2.9202,2.9301,2.9231,2.9231,2.9231,2.9231,0,2.823,2.8304,2.838,2.8435,2.8519,2.8568,2.8649,2.8694,2.8758,2.8822,2.8852,2.8912,2.8971,2.9038,2.9075,2.9162,2.9182,2.9206,2.9215,2.9203,2.92,2.9231,2.9227,2.9234,2.9233,2.9233,2.9232,0,2.828,2.8334,2.8434,2.8521,2.8545,2.8602,2.8677,2.8732,2.8775,2.8856,2.8878,2.8946,2.9026,2.9079,2.9182,2.9207,2.9302,2.931,2.9277,2.9281,2.9321,2.9316,2.9443,2.9462,2.9379,2.938,2.9381,0,2.833,2.8388,2.8481,2.8526,2.8571,2.8643,2.8693,2.8743,2.8794,2.8882,2.8926,2.9008,2.9077,2.9204,2.9262,2.9341,2.9351,2.939,2.9363,2.9349,2.9351,2.9347,2.9352,2.9394,2.9395,2.9395,2.9396,0,2.8413,2.8437,2.8507,2.8587,2.8646,2.8711,2.8777,2.8812,2.8873,2.8929,2.9011,2.9064,2.9169,2.925,2.9334,2.9379,2.9398,2.9404,2.9418,2.9406,2.9384,2.9396,2.9288,2.9401,2.94,2.94,2.9399,2.9399,2.8465,2.8517,2.859,2.8668,2.8722,2.8782,2.8838,2.8888,2.8958,2.9047,2.9072,2.9158,2.923,2.9344,2.9391,2.9458,2.9454,2.9474,2.948,2.9484,2.9484,2.9374,2.9474,2.9474,2.9474,2.9474,2.9474,0,2.8549,2.8597,2.8668,2.8758,2.8819,2.8831,2.8904,2.8954,2.9029,2.9094,2.9161,2.9255,2.9334,2.9398,2.948,2.9521,2.9532,2.9541,2.9538,2.9548,2.9483,2.9463,2.9531,2.9531,2.9531,2.9531,2.9531,2.9531,2.8599,2.8688,2.872,2.8835,2.8883,2.8968,2.9008,2.9064,2.9116,2.922,2.9286,2.9327,2.9392,2.9478,2.955,2.9567,2.9595,2.9602,2.9621,2.9559,2.9553,2.9547,2.9528,2.9608,2.9608,2.968,2.9681,2.9681]}]]